Starlink 34554

operational
NORAD ID: 64687 Int'l Des: 2025-139 Owner: SPXS Country: US Constellation: starlink
LEOCIRCULAR

Starlink 34554について

説明を読み込み中...

リアルタイム位置

3D地球を読み込み中...

次回通過

高度履歴

Altitude vs Time

uPlot chart will show altitude changes over time

軌道要素

1 64687U 25139Z 26062.46908242 .00030913 00000-0 10515-2 0 9992
2 64687 53.1591 155.7912 0001426 103.1119 257.0041 15.30201013 39339
Epoch: Mar 3, 2026 • Age: 36 hours

現在のステータス

高度 475.2 km
速度 7.63 km/s
衛星直下点 16.93°N, 175.29°E
打ち上げ日 Jun 28, 2025
運用期間 0.6 years
タイプ internet

技術仕様

分類 Payload
質量 575.00 kg
乾燥質量 530.00 kg
総質量 575.00 kg
長さ 0.30 m
直径 4.10 m
スパン 29.00 m
形状 Box + pan
製造者 SPXS
バスタイプ Starlink V2MO
フェーズステータス In Orbit
所有者/国 SPXS/US

大規模コンステレーション

Loading constellations...